Погода в Сияве

Россия / Чувашская Республика     55°08′32″N   46°30′36″E
темп.,
°C
ветер,
м/с
пор.,
м/с
влажн.,
%
обл.,
%
осадки,
мм/ч
давл.,
гПа
погр.,
м
17 июня, чт
чт1700:00+16с39900 0.0 1013331
03:00+13ссз23965 0.0 101571
06:00+16ссз24850 0.0 1017208
09:00+19сз45641 0.0 1018847
12:00+21сз57460 0.0 10191580
15:00+22сз57505 0.0 10191915
18:00+20сз47651 0.0 1020909
21:00+14сз22790 0.0 102231
18 июня, пт
пт1800:00+11с22805 0.0 102431
03:00+10ссз22850 0.0 102535
06:00+13с23700 0.0 1027169
09:00+18ссз354856 0.0 10271087
12:00+21ссз45450 0.0 10271617
15:00+22ссз34455 0.0 10261620
18:00+20ссв1265100 0.0 1026366
21:00+15ю2271100 0.0 102711
19 июня, сб
сб1900:00+13ююз228288 0.0 102711
03:00+12зюз22903 0.0 102815
06:00+16зюз36795 0.0 1028213
09:00+21зюз4668100 0.0 1027564
12:00+24з566298 0.0 10261181
15:00+25з56595 0.0 10251561
18:00+24з37725 0.0 1024750
21:00+19зюз36910 0.0 102499
20 июня, вс
вс2000:00+17з36950 0.0 1024111
03:00+16зсз23950 0.0 102564
06:00+19зсз25830 0.0 1025202
09:00+24зсз35660 0.0 1025605
12:00+26зсз45590 0.0 10241201
15:00+27зсз44580 0.0 10231388
18:00+25зсз24710 0.0 1022397
21:00+20з22870 0.0 102313
21 июня, пн
пн2100:00+18зюз22880 0.0 102211
03:00+16зюз22890 0.0 102311
06:00+19з2479100 0.0 1023159
09:00+24з3466100 0.0 1022522
12:00+26з34565 0.0 10221145
15:00+27з45556 0.0 10211414
18:00+25зсз35705 0.0 1020482
21:00+20з22862 0.0 102011